Location: Asheville, NC
(35.6000°N, 82.5500°W)
Time: 12:31:41
(UTC-04:00)

STRAND 1 - Pass Details

Date: 06 January 2018
Orbit: 769 x 780 km, 98.5° (Epoch: 24 June)

Event Time Altitude Azimuth Distance (km) Brightness Sun altitude
Exits shadow 19:06:21 12° 134° (SE) 2,191 ? -18.7°
Drops below altitude 10° 19:06:51 10° 138° (SE) 2,315 ? -18.8°
Sets 19:09:49 0° 156° (SSE) 3,240 ? -19.4°
